Wind_Speed
7 7 8 8 8 9 9 10 11 12 12 13 14 14 15 16 16 17 17 18 18 18 18 18 18 18 18 17 17 17 16 16 16 16 16 16 16 16 16 15 15 15 15
7 8 8 9 9 10 10 11 12 12 13 14 14 15 16 17 17 18 18 18 18 19 19 19 18 18 18 17 17 17 16 17 16 16 16 16 16 16 16 16 16 15 15
8 8 9 9 10 10 11 11 12 13 14 15 16 16 17 17 17 18 18 18 18 18 18 18 18 18 17 17 17 16 16 17 17 16 16 16 16 16 16 16 16 16 16
8 8 9 9 10 10 11 12 13 13 14 15 16 16 16 16 17 17 17 17 17 18 17 17 17 17 17 16 16 16 16 16 16 16 16 16 16 16 16 15 15 15 16
9 9 9 10 10 11 11 12 13 14 14 15 15 15 16 16 16 16 17 17 17 17 17 17 17 17 16 16 16 16 16 16 16 16 16 16 16 16 16 16 16 16 16
10 10 11 11 11 12 12 13 13 14 14 15 15 15 16 16 16 16 17 17 17 17 17 17 17 17 17 16 16 16 16 16 17 16 16 16 16 16 16 16 17 17 17
12 12 12 12 12 13 13 13 14 14 15 15 16 16 17 17 17 17 17 17 17 17 18 18 18 18 18 18 18 18 18 18 18 18 18 18 18 18 18 18 18 18 18
12 12 13 13 14 14 14 15 15 15 16 16 17 17 18 18 19 19 19 19 19 20 20 20 20 20 20 20 20 20 20 20 20 20 20 20 20 20 20 21 21 21 21
12 13 13 14 14 15 15 16 16 17 18 18 19 19 20 20 21 21 22 22 22 22 23 23 23 23 23 23 23 23 23 23 23 24 23 24 24 24 24 24 24 24 24
14 14 14 15 16 16 17 18 18 19 19 20 21 21 22 22 23 23 24 24 25 25 26 26 26 27 27 27 27 27 27 27 27 27 27 27 28 28 28 28 28 28 29
15 15 16 17 18 18 19 19 20 21 21 22 22 22 23 24 24 25 26 26 27 27 28 28 29 30 30 30 30 31 31 31 31 31 31 32 32 32 32 32 33 33 33
16 17 18 18 19 20 20 21 21 21 22 22 23 24 24 25 26 26 27 28 28 29 29 30 31 31 32 33 33 34 34 35 35 35 36 36 36 36 37 37 37 37 38
17 18 19 20 20 21 21 21 21 22 22 23 24 24 25 25 26 27 27 28 29 30 30 31 32 32 33 34 35 35 36 37 37 38 39 39 40 40 40 41 41 41 42
18 19 20 21 21 21 22 22 22 22 22 23 23 24 24 25 26 27 28 29 29 30 31 31 32 33 33 34 35 36 36 37 38 39 40 41 41 42 43 43 44 45 45
20 19 20 21 21 22 22 22 22 22 23 24 24 25 25 26 27 27 28 29 30 31 32 32 33 34 34 34 35 36 37 38 38 39 40 41 42 43 45 46 47 47 48
21 21 21 21 21 22 22 22 23 23 24 25 26 26 27 28 29 29 30 31 31 32 32 33 34 34 35 35 36 36 37 38 39 40 41 42 43 44 45 46 47 48 49
22 22 21 21 22 22 22 23 24 24 25 26 27 28 29 30 30 31 32 33 33 33 34 34 35 35 36 36 36 37 37 38 39 40 41 42 43 44 45 46 47 48 49
23 23 22 22 23 23 24 24 25 26 27 28 29 30 31 31 32 32 33 34 34 35 35 36 36 37 37 37 38 38 38 38 39 40 41 42 43 44 45 46 47 48 49
23 23 23 23 24 25 25 25 26 27 28 29 30 31 32 32 33 33 34 35 35 36 36 36 36 36 36 37 36 37 37 38 39 40 41 41 42 43 44 46 47 48 49
24 24 24 24 25 25 26 27 28 29 30 31 31 32 32 33 33 34 35 36 36 36 36 36 36 36 36 36 36 36 37 37 39 39 40 41 42 43 44 46 48 49 50
24 24 24 25 25 26 27 28 28 30 31 32 32 32 33 33 34 34 35 36 36 36 36 36 35 36 36 37 37 36 36 37 39 39 41 43 44 46 47 49 50 52 53
25 25 25 25 26 27 27 28 29 30 31 32 33 33 34 34 35 35 36 36 36 36 36 36 37 37 39 40 40 39 39 40 42 43 45 47 49 50 52 54 55 56 58
25 25 26 26 27 27 28 29 30 31 32 33 34 34 35 35 36 36 36 37 37 37 38 39 40 40 41 43 44 45 45 45 45 46 48 50 53 55 57 59 60 62 63
25 26 26 27 28 29 30 30 31 32 33 34 35 35 36 37 38 38 38 38 39 40 41 42 43 44 44 46 48 50 52 53 53 52 51 53 55 57 59 62 64 66 67
25 26 27 28 29 30 31 32 33 34 35 36 37 38 38 39 39 40 41 41 41 42 43 44 46 47 48 49 51 53 55 57 59 61 60 58 59 61 63 65 67 69 71
26 27 28 29 30 31 33 34 35 36 37 38 39 39 40 40 41 41 42 43 44 44 46 47 48 50 51 53 55 56 58 60 62 65 66 66 65 65 66 67 69 71 73
Wind_Direction
247 255 262 270 277 283 288 291 293 295 295 295 295 294 294 293 292 291 289 288 287 287 286 285 283 282 281 280 280 280 280 279 278 277 277 275 274 274 274 273 272 272 271
254 258 263 268 275 280 284 287 289 290 292 292 292 292 291 290 289 288 286 285 284 282 281 280 278 278 277 276 276 276 275 274 274 274 273 272 271 270 269 269 268 267 267
252 258 263 268 273 278 281 284 287 288 290 291 291 291 290 289 288 286 285 284 282 280 278 276 275 274 273 273 272 272 271 271 271 270 270 269 268 267 267 266 265 264 263
253 260 264 271 275 278 280 282 285 287 289 289 290 290 289 288 287 286 285 283 281 279 277 275 273 272 271 271 270 270 269 269 268 267 267 266 265 264 264 264 263 262 262
257 262 266 272 276 279 281 283 285 287 288 288 289 289 289 288 287 286 284 282 280 278 276 275 273 271 270 269 268 267 267 266 265 265 265 264 263 262 262 261 261 260 260
262 264 268 273 276 279 281 283 285 285 286 288 288 288 287 287 287 286 284 282 280 278 276 274 272 270 268 266 265 264 263 263 263 263 263 262 261 261 261 260 260 260 260
268 268 270 274 277 280 281 282 283 284 285 286 286 287 286 286 285 285 284 282 279 276 275 273 271 268 267 266 264 263 262 262 262 261 261 261 261 261 260 261 261 261 261
271 272 273 275 278 280 281 282 282 283 284 284 284 285 285 284 284 283 283 281 278 276 274 273 271 269 267 265 263 262 261 261 261 261 261 261 261 261 262 262 262 262 263
276 277 279 280 281 282 283 283 284 284 284 284 284 284 283 283 282 282 281 279 278 276 275 273 272 270 268 266 264 263 262 261 261 261 261 262 262 263 263 263 264 264 265
280 281 282 283 284 284 285 285 285 285 285 284 284 284 283 282 281 281 280 279 278 277 275 274 273 272 270 268 266 265 264 263 262 262 262 262 263 263 264 264 265 266 266
280 282 283 283 284 285 286 286 286 285 285 285 285 284 283 283 282 281 280 279 278 277 276 275 273 272 271 270 268 267 266 265 264 264 264 264 264 264 265 265 266 266 267
282 284 285 285 286 286 287 287 287 287 286 286 286 285 284 283 283 282 281 280 279 278 277 276 275 274 273 272 270 269 269 268 268 267 267 266 266 266 266 266 267 267 268
282 284 286 286 287 288 288 288 288 288 288 288 288 287 286 285 284 283 282 281 280 279 279 278 277 276 275 274 273 272 272 271 271 270 270 269 269 269 268 268 268 268 268
281 283 286 286 287 288 289 289 289 289 290 290 290 289 288 287 286 285 284 283 282 281 280 279 278 277 276 276 275 274 273 273 272 272 272 271 271 271 270 270 269 269 269
282 283 284 286 286 287 288 289 290 291 292 292 292 291 290 289 288 286 285 284 283 282 281 280 279 278 276 275 275 274 274 273 273 272 272 271 271 271 270 270 270 269 269
281 282 283 284 285 286 288 289 290 291 292 293 293 292 291 290 289 287 286 284 283 282 282 281 280 280 279 278 277 276 276 275 275 275 274 273 273 272 272 272 272 271 271
279 281 282 283 283 285 287 288 290 291 292 293 293 292 291 290 288 287 285 284 283 282 281 280 280 279 278 278 278 277 276 276 276 276 275 275 275 275 274 274 274 273 273
278 279 281 282 283 285 286 287 288 289 290 292 292 292 291 290 288 287 286 284 284 283 282 281 280 279 278 277 277 276 276 276 276 276 276 276 276 276 276 276 276 275 275
276 278 280 281 283 284 285 286 288 289 290 291 292 292 291 290 289 288 287 286 285 284 283 282 280 279 278 278 277 277 277 277 277 277 277 277 277 277 277 277 277 276 276
274 277 278 280 282 283 285 287 288 290 291 292 292 292 291 290 290 289 288 287 286 285 283 282 280 279 278 278 278 278 278 278 278 278 278 278 278 278 278 278 278 278 277
273 275 276 278 280 282 284 286 288 290 291 292 293 293 293 292 291 290 289 288 286 285 283 282 281 280 280 279 278 278 278 279 279 279 279 279 279 279 279 279 279 279 278
270 272 274 276 278 281 283 286 289 291 293 294 294 294 293 292 291 291 290 289 286 284 283 282 282 282 282 281 280 278 277 278 280 281 282 282 282 282 282 281 281 280 280
268 270 273 275 278 280 283 286 289 292 293 294 295 294 293 292 292 291 290 288 286 284 283 283 283 283 283 283 283 282 280 277 276 278 280 281 282 283 283 283 282 282 281
268 270 273 276 278 281 284 287 290 292 293 294 295 295 294 292 291 290 289 288 287 286 284 284 284 284 284 284 285 285 285 284 282 279 278 280 281 282 282 282 283 282 282
268 270 273 276 279 282 285 287 290 292 294 295 295 295 294 293 291 290 289 288 287 287 286 285 285 285 285 285 285 286 287 287 287 286 284 283 283 283 284 284 284 284 283
269 272 275 278 280 283 285 288 290 292 294 295 295 295 294 293 292 290 289 288 287 287 287 287 287 287 287 287 288 288 288 289 289 289 288 287 286 286 286 286 286 285 285
Height
5892 5892 5892 5892 5892 5892 5892 5892 5892 5891 5891 5890 5890 5890 5889 5889 5888 5888 5887 5886 5885 5885 5884 5883 5882 5882 5881 5880 5880 5879 5879 5878 5877 5877 5876 5876 5875 5875 5875 5874 5874 5874 5873
5890 5890 5891 5890 5890 5890 5890 5890 5890 5889 5889 5888 5887 5887 5886 5886 5885 5884 5884 5883 5882 5881 5881 5880 5879 5878 5878 5877 5877 5876 5875 5874 5874 5873 5873 5873 5872 5872 5871 5871 5871 5870 5870
5888 5889 5889 5889 5888 5888 5888 5888 5887 5887 5886 5885 5885 5884 5883 5883 5882 5881 5880 5879 5879 5878 5877 5876 5876 5875 5874 5874 5873 5872 5871 5871 5870 5870 5870 5869 5869 5868 5868 5867 5867 5867 5866
5887 5887 5887 5886 5886 5886 5886 5885 5885 5884 5883 5883 5882 5881 5880 5879 5879 5878 5877 5876 5875 5874 5874 5873 5872 5871 5871 5870 5869 5869 5868 5867 5867 5866 5866 5866 5865 5864 5864 5863 5863 5863 5862
5885 5885 5884 5884 5884 5884 5883 5883 5882 5882 5881 5880 5879 5878 5877 5876 5876 5875 5874 5873 5872 5871 5870 5869 5869 5868 5867 5866 5866 5865 5864 5864 5863 5863 5862 5862 5861 5861 5860 5860 5859 5859 5859
5883 5883 5882 5882 5882 5881 5881 5880 5880 5879 5878 5877 5876 5875 5874 5874 5873 5872 5871 5870 5869 5868 5867 5866 5865 5864 5864 5863 5862 5861 5861 5860 5860 5859 5859 5858 5858 5857 5856 5856 5855 5855 5855
5881 5880 5880 5879 5879 5879 5878 5877 5877 5876 5875 5874 5874 5873 5872 5871 5869 5868 5867 5866 5865 5864 5863 5863 5862 5861 5860 5859 5858 5858 5857 5856 5856 5855 5855 5854 5854 5853 5852 5852 5851 5851 5850
5878 5878 5877 5877 5876 5876 5875 5875 5874 5873 5872 5871 5870 5869 5868 5867 5866 5865 5864 5863 5862 5861 5860 5859 5858 5857 5856 5855 5855 5854 5853 5852 5851 5851 5850 5850 5849 5848 5848 5847 5847 5846 5846
5875 5875 5875 5874 5873 5873 5872 5872 5871 5870 5869 5868 5867 5866 5865 5863 5862 5861 5860 5859 5858 5857 5856 5855 5854 5853 5852 5851 5850 5849 5849 5848 5847 5846 5846 5845 5844 5843 5843 5842 5842 5841 5841
5873 5872 5872 5871 5870 5870 5869 5868 5867 5866 5865 5864 5863 5862 5861 5859 5858 5857 5856 5854 5853 5852 5851 5850 5849 5848 5847 5846 5845 5844 5843 5843 5842 5841 5840 5840 5839 5838 5837 5837 5836 5836 5835
5870 5869 5869 5868 5867 5866 5865 5865 5864 5862 5861 5860 5859 5857 5856 5855 5853 5852 5851 5849 5848 5847 5846 5845 5843 5842 5842 5841 5840 5839 5838 5837 5836 5835 5834 5834 5833 5832 5831 5831 5830 5829 5829
5867 5866 5865 5864 5863 5862 5861 5860 5859 5858 5857 5856 5854 5853 5851 5850 5848 5847 5846 5844 5843 5841 5840 5839 5838 5836 5835 5834 5833 5832 5831 5830 5830 5829 5828 5827 5826 5825 5825 5824 5823 5822 5822
5864 5862 5861 5860 5859 5858 5857 5856 5855 5854 5853 5851 5850 5848 5847 5845 5843 5842 5840 5838 5837 5835 5834 5833 5831 5830 5829 5827 5826 5825 5824 5823 5822 5821 5820 5820 5819 5818 5817 5816 5815 5814 5814
5860 5859 5857 5856 5855 5854 5853 5852 5850 5849 5848 5846 5845 5843 5842 5840 5838 5836 5834 5833 5831 5829 5828 5826 5825 5823 5822 5820 5819 5818 5817 5816 5814 5813 5812 5811 5810 5809 5808 5807 5806 5805 5805
5855 5855 5853 5852 5851 5849 5848 5847 5846 5844 5843 5842 5840 5838 5837 5835 5833 5831 5829 5827 5825 5823 5821 5820 5818 5816 5815 5813 5812 5810 5808 5807 5806 5804 5803 5802 5800 5799 5798 5797 5796 5795 5794
5850 5850 5849 5848 5847 5845 5844 5843 5841 5840 5838 5836 5835 5833 5831 5829 5827 5825 5823 5821 5819 5817 5815 5813 5810 5809 5807 5805 5804 5802 5801 5799 5797 5795 5794 5792 5791 5789 5788 5787 5785 5784 5783
5845 5845 5844 5843 5842 5841 5840 5838 5836 5835 5833 5831 5829 5827 5825 5823 5821 5819 5816 5814 5812 5810 5808 5806 5803 5801 5799 5798 5796 5794 5792 5790 5789 5787 5785 5783 5781 5779 5778 5776 5775 5773 5772
5840 5840 5839 5838 5837 5836 5835 5833 5831 5830 5828 5826 5823 5821 5819 5816 5814 5812 5809 5807 5805 5802 5800 5798 5796 5794 5791 5789 5788 5786 5784 5782 5780 5778 5776 5774 5772 5770 5768 5766 5764 5762 5761
5835 5835 5834 5833 5832 5830 5829 5827 5826 5824 5822 5820 5817 5815 5812 5809 5807 5804 5801 5799 5796 5794 5791 5789 5787 5785 5783 5781 5779 5777 5775 5773 5771 5768 5766 5764 5762 5760 5758 5755 5753 5751 5749
5830 5829 5828 5827 5826 5825 5823 5821 5820 5818 5816 5813 5810 5808 5805 5802 5799 5796 5793 5791 5788 5785 5783 5781 5778 5776 5774 5772 5770 5768 5766 5764 5761 5759 5757 5755 5752 5749 5747 5745 5742 5740 5737
5824 5824 5823 5822 5820 5819 5817 5816 5814 5811 5809 5806 5803 5800 5797 5795 5792 5788 5785 5782 5780 5777 5774 5772 5770 5767 5764 5762 5761 5760 5758 5755 5752 5750 5747 5744 5742 5739 5736 5733 5731 5728 5725
5819 5818 5817 5816 5815 5813 5811 5809 5807 5804 5802 5799 5796 5793 5790 5787 5784 5780 5777 5774 5771 5768 5766 5763 5761 5758 5755 5752 5751 5750 5749 5748 5743 5740 5737 5733 5730 5727 5724 5720 5717 5714 5711
5813 5812 5811 5810 5808 5807 5805 5803 5800 5798 5795 5792 5788 5785 5782 5779 5776 5772 5769 5766 5763 5760 5757 5754 5751 5749 5746 5742 5739 5737 5736 5736 5734 5733 5728 5723 5718 5715 5710 5706 5702 5699 5695
5807 5806 5805 5803 5802 5800 5798 5796 5793 5790 5787 5784 5781 5777 5774 5770 5767 5764 5760 5757 5754 5751 5748 5744 5741 5738 5736 5733 5729 5724 5721 5718 5716 5717 5717 5712 5707 5702 5697 5692 5687 5682 5677
5800 5799 5798 5797 5795 5793 5791 5788 5786 5783 5780 5776 5773 5769 5765 5762 5758 5755 5751 5748 5744 5741 5738 5734 5731 5727 5724 5721 5717 5713 5709 5704 5699 5695 5696 5696 5692 5687 5682 5676 5671 5664 5658
5794 5793 5791 5790 5788 5786 5783 5780 5777 5774 5771 5768 5764 5760 5756 5753 5749 5745 5741 5738 5734 5730 5727 5723 5720 5716 5712 5708 5703 5699 5695 5690 5685 5679 5675 5674 5672 5670 5664 5659 5652 5645 5638